State University, AR

8:11 PM CST on February 06, 2016 (GMT -0600)
Jonesboro Municipal

Weather History for KJBR - November, 2011

Change the Weather History Date:

Monday, November 28, 2011

  Actual Average Record
Temperature  
Mean Temperature 37 °F 44 °F  
Max Temperature 40 °F 53 °F 77 °F (1998)
Min Temperature 33 °F 35 °F 16 °F (1955)
Degree Days  
Heating Degree Days 28 21  
Month to date heating degree days 326 421  
Since 1 July heating degree days 501 608  
Cooling Degree Days 0 0  
Month to date cooling degree days 9 1  
Year to date cooling degree days 2223 1825  
Moisture  
Dew Point 31 °F    
Average Humidity 80    
Maximum Humidity 89    
Minimum Humidity 70    
Precipitation  
Precipitation 0.39 in 0.18 in 2.68 in (2001)
Month to date precipitation 10.14 4.51  
Year to date precipitation 49.96 42.94  
Snow  
Snow 0.00 in 0.00 in T in (1995)
Month to date snowfall 0.0 0.0  
Since 1 July snowfall 0.0 0.0  
Since 1 September snowfall 0.0 0.0  
Snow Depth -    
Sea Level Pressure  
Sea Level Pressure 29.94 in    
Wind  
Wind Speed 10 mph (NW)    
Max Wind Speed 18 mph    
Max Gust Speed 23 mph    
Visibility 7 miles    
Events Rain , Snow    
T = Trace of Precipitation, MM = Missing Value Source: NWS Daily Summary

Daily Weather History Graph

Daily Weather History Graph

Search for Another Location

Airport or City:

Trip Planner

Search our weather history database for the weather conditions in past years. The results will help you decide how hot, cold, wet, or windy it might be!

Date:

Astronomy

Nov. 28, 2011 Rise Set
Actual Time 6:51 AM CST 4:49 PM CST
Civil Twilight 6:23 AM CST 5:17 PM CST
Nautical Twilight 5:51 AM CST 5:48 PM CST
Astronomical Twilight 5:21 AM CST 6:19 PM CST
Moon 10:01 AM CST (11/28) 8:34 PM CST (11/28)
Length of Visible Light 10h 54m
Length of Day
9h 58m
Waxing Crescent, 16% of the Moon is Illuminated
Nov 28
Waxing Crescent
Dec 2
First Quarter
Dec 10
Full
Dec 17
Last Quarter
Dec 24
New

Hourly Weather History & Observations

Time (CST) Temp. Windchill Dew Point Humidity Pressure Visibility Wind Dir Wind Speed Gust Speed Precip Events Conditions
12:27 AM 39.2 °F 33.0 °F 30.2 °F 70% 30.08 in 10.0 mi North 9.2 mph - N/A   Overcast
12:34 AM 39.2 °F 32.5 °F 30.2 °F 70% 30.07 in 10.0 mi North 10.4 mph - N/A   Overcast
12:53 AM 39.0 °F 33.4 °F 30.0 °F 70% 30.07 in 10.0 mi North 8.1 mph 17.3 mph N/A   Overcast
1:53 AM 39.0 °F 32.3 °F 30.0 °F 70% 30.07 in 10.0 mi North 10.4 mph - N/A   Overcast
2:53 AM 39.0 °F 33.4 °F 30.0 °F 70% 30.06 in 10.0 mi North 8.1 mph - N/A   Overcast
3:53 AM 37.9 °F 32.1 °F 30.0 °F 73% 30.04 in 10.0 mi North 8.1 mph - N/A   Overcast
4:53 AM 37.9 °F 30.5 °F 30.0 °F 73% 30.04 in 10.0 mi North 11.5 mph 19.6 mph N/A   Overcast
5:53 AM 37.9 °F 30.9 °F 30.0 °F 73% 30.03 in 10.0 mi North 10.4 mph - N/A   Overcast
6:53 AM 37.9 °F 30.9 °F 30.9 °F 76% 30.02 in 10.0 mi North 10.4 mph - N/A   Overcast
7:13 AM 37.4 °F 29.8 °F 30.2 °F 75% 30.02 in 10.0 mi North 11.5 mph - N/A Rain Light Rain
7:37 AM 37.4 °F 30.8 °F 30.2 °F 75% 30.02 in 10.0 mi North 9.2 mph 17.3 mph N/A Rain Light Rain
7:53 AM 37.0 °F 30.4 °F 30.9 °F 79% 30.02 in 10.0 mi North 9.2 mph - 0.01 in Rain Light Rain
8:53 AM 37.0 °F 29.8 °F 32.0 °F 82% 30.01 in 10.0 mi NNW 10.4 mph - 0.01 in Rain Light Rain
9:28 AM 37.4 °F 30.8 °F 32.0 °F 81% 30.00 in 10.0 mi NNW 9.2 mph - 0.01 in Rain Light Rain
9:46 AM 37.4 °F 29.8 °F 32.0 °F 81% 30.00 in 10.0 mi NW 11.5 mph - 0.02 in Rain Light Rain
9:53 AM 37.0 °F 30.4 °F 32.0 °F 82% 30.00 in 10.0 mi NNW 9.2 mph - 0.02 in Rain Light Rain
10:53 AM 37.9 °F 30.0 °F 33.1 °F 83% 29.97 in 10.0 mi NW 12.7 mph - 0.02 in Rain Light Rain
11:31 AM 37.4 °F 29.8 °F 33.8 °F 87% 29.94 in 9.0 mi NNW 11.5 mph 21.9 mph 0.01 in Rain Light Rain
11:53 AM 39.0 °F 31.8 °F 34.0 °F 82% 29.94 in 10.0 mi NW 11.5 mph - 0.01 in Rain Light Rain
12:53 PM 39.2 °F 32.5 °F 33.8 °F 81% 29.91 in 10.0 mi NNW 10.4 mph 21.9 mph N/A Rain Light Rain
1:53 PM 39.9 °F 32.1 °F 32.0 °F 73% 29.88 in 10.0 mi NNW 13.8 mph 21.9 mph 0.01 in   Overcast
2:53 PM 39.0 °F 34.8 °F 32.0 °F 76% 29.88 in 10.0 mi NNW 5.8 mph - 0.01 in Rain Light Rain
3:53 PM 39.0 °F 32.8 °F 33.1 °F 79% 29.88 in 7.0 mi NW 9.2 mph 18.4 mph 0.03 in Rain Light Rain
4:53 PM 37.9 °F 29.6 °F 32.0 °F 79% 29.88 in 8.0 mi NNW 13.8 mph 21.9 mph 0.05 in Rain Light Rain
5:04 PM 37.4 °F 28.9 °F 32.0 °F 81% 29.89 in 7.0 mi NW 13.8 mph 23.0 mph 0.01 in Rain Rain
5:25 PM 35.6 °F 29.2 °F 30.2 °F 81% 29.89 in 5.0 mi NW 8.1 mph 18.4 mph 0.05 in Snow Light Snow
5:44 PM 33.8 °F 27.0 °F 30.2 °F 87% 29.89 in 2.0 mi NW 8.1 mph - 0.06 in Snow Light Snow
5:53 PM 33.1 °F 25.5 °F 30.0 °F 89% 29.89 in 2.0 mi WNW 9.2 mph - 0.07 in Snow Light Snow
6:11 PM 33.8 °F 27.0 °F 30.2 °F 87% 29.89 in 1.8 mi WNW 8.1 mph - N/A Snow Light Snow
6:53 PM 33.1 °F 25.5 °F 30.0 °F 89% 29.89 in 0.8 mi WNW 9.2 mph - 0.02 in Snow Light Snow
7:06 PM 33.8 °F 27.0 °F 30.2 °F 87% 29.89 in 1.2 mi West 8.1 mph - N/A Snow Light Snow
7:34 PM 33.8 °F 27.7 °F 30.2 °F 87% 29.88 in 1.5 mi WNW 6.9 mph - 0.01 in Snow Light Snow
7:49 PM 33.8 °F 27.0 °F 30.2 °F 87% 29.88 in 1.8 mi WNW 8.1 mph - 0.01 in Snow Light Snow
7:53 PM 33.1 °F 26.1 °F 30.0 °F 89% 29.89 in 1.8 mi West 8.1 mph - 0.01 in Snow Light Snow
8:03 PM 33.8 °F 27.0 °F 30.2 °F 87% 29.88 in 2.0 mi WNW 8.1 mph - 0.00 in Snow Light Snow
8:20 PM 33.8 °F 25.8 °F 30.2 °F 87% 29.88 in 4.0 mi WNW 10.4 mph - 0.01 in Snow Light Snow
8:53 PM 34.0 °F 25.5 °F 30.0 °F 85% 29.87 in 6.0 mi West 11.5 mph - 0.02 in Snow Light Snow
9:53 PM 34.0 °F 26.6 °F 30.0 °F 85% 29.86 in 6.0 mi WNW 9.2 mph - 0.04 in Snow Light Snow
10:53 PM 34.0 °F 25.0 °F 30.0 °F 85% 29.84 in 5.0 mi WNW 12.7 mph - 0.03 in   Overcast
11:10 PM 33.8 °F 24.8 °F 30.2 °F 87% 29.83 in 1.8 mi WNW 12.7 mph - 0.01 in Snow Light Snow
11:53 PM 33.1 °F 23.9 °F 30.0 °F 89% 29.84 in 1.8 mi WNW 12.7 mph - 0.03 in Snow Light Snow